* Astronomy

Members Login
Username 
 
Password 
    Remember Me  
Post Info TOPIC: Asteroid 2015 AK280


L

Posts: 131433
Date:
Asteroid 2015 AK280
Permalink  
 


Orbital elements:
2015 AK280                                          PHA, Earth MOID = 0.0494 AU
Epoch 2014 Dec. 9.0 TT = JDT 2457000.5                  MPC
M   1.55394              (2000.0)            P               Q
n   0.22654401     Peri.   45.06824     +0.46856085     -0.88148783
a   2.6650232      Node    17.25855     +0.74473750     +0.35847096
e   0.7041817      Incl.   11.38501     +0.47520183     +0.30737238
P   4.35           H   21.9           G   0.15           U   5

MPEC 2015 - B117



__________________
Page 1 of 1  sorted by
 
Quick Reply

Please log in to post quick replies.



Create your own FREE Forum
Report Abuse
Powered by ActiveBoard